Location: ???????
(55.4362°N, 38.1183°E)
Time: 18:09:48
(UTC+00:00)

Cosmos 1726 Rocket - Pass Details

Date: 17 June 2021
Orbit: 602 x 630 km, 82.5° (Epoch: 29 July)

Event Time Altitude Azimuth Distance (km) Brightness Sun altitude
Rises 20:27:18 0° 346° (NNW) 2,938 9.4 -10.1°
Reaches altitude 10° 20:29:33 10° 344° (NNW) 2,025 7.8 -10.2°
Maximum altitude 20:34:00 66° 263° (W) 694 3.8 -10.3°
Enters shadow 20:37:50 14° 182° (S) 1,775 5.3 -10.4°
